| time (UTC) | temp F | wind direction | speed MPH | gust MPH | rain 1hr in | rain 24hr in | rain mn in | humidity % | barometer mb |
| 20260505223017 | 78 | 225 | 3.0 | 12.0 | 0.00 | 0.01 | 0.00 | 35 | 1007.4 |
| 20260505220017 | 79 | 225 | 3.0 | 13.0 | 0.00 | 0.01 | 0.00 | 36 | 1007.7 |
| 20260505213017 | 82 | 225 | 4.0 | 12.0 | 0.00 | 0.01 | 0.00 | 35 | 1007.3 |
| 20260505210017 | 82 | 248 | 4.0 | 12.0 | 0.00 | 0.01 | 0.00 | 31 | 1007.2 |
| 20260505203017 | 81 | 248 | 4.0 | 14.0 | 0.00 | 0.01 | 0.00 | 37 | 1007.2 |
| 20260505200017 | 82 | 225 | 4.0 | 15.0 | 0.00 | 0.01 | 0.00 | 36 | 1007.4 |
| 20260505193017 | 81 | 270 | 3.0 | 14.0 | 0.00 | 0.01 | 0.00 | 39 | 1007.7 |
| 20260505190017 | 81 | 225 | 4.0 | 17.0 | 0.00 | 0.01 | 0.00 | 37 | 1008.0 |
| 20260505183037 | 81 | 248 | 3.0 | 12.0 | 0.00 | 0.01 | 0.00 | 38 | 1008.4 |
| 20260505180037 | 80 | 270 | 4.0 | 14.0 | 0.00 | 0.01 | 0.00 | 39 | 1008.6 |
| 20260505173017 | 80 | 225 | 4.0 | 20.0 | 0.00 | 0.01 | 0.00 | 39 | 1009.0 |
| 20260505170017 | 79 | 248 | 4.0 | 17.0 | 0.00 | 0.01 | 0.00 | 40 | 1009.4 |
| 20260505163016 | 78 | 225 | 4.0 | 13.0 | 0.00 | 0.01 | 0.00 | 41 | 1009.7 |
| 20260505153016 | 77 | 225 | 5.0 | 16.0 | 0.00 | 0.01 | 0.00 | 44 | 1010.2 |
| 20260505123017 | 68 | 203 | 2.0 | 6.0 | 0.00 | 0.01 | 0.00 | 54 | 1010.8 |
| 20260505120016 | 67 | 158 | 2.0 | 6.0 | 0.00 | 0.01 | 0.00 | 55 | 1010.7 |
| 20260505113016 | 65 | 158 | 1.0 | 5.0 | 0.00 | 0.01 | 0.00 | 57 | 1010.4 |
| 20260505100016 | 67 | 225 | 3.0 | 13.0 | 0.00 | 0.01 | 0.00 | 53 | 1009.7 |
| 20260505093016 | 67 | 225 | 3.0 | 12.0 | 0.00 | 0.01 | 0.00 | 53 | 1009.7 |
| 20260505090018 | 67 | 248 | 2.0 | 13.0 | 0.00 | 0.01 | 0.00 | 54 | 1009.6 |
| 20260505083016 | 67 | 248 | 2.0 | 8.0 | 0.00 | 0.01 | 0.00 | 54 | 1009.5 |
| 20260505080016 | 66 | 225 | 2.0 | 10.0 | 0.00 | 0.01 | 0.00 | 57 | 1009.6 |
| 20260505073036 | 66 | 225 | 2.0 | 8.0 | 0.00 | 0.01 | 0.00 | 57 | 1009.3 |
| 20260505070036 | 64 | 225 | 1.0 | 4.0 | 0.00 | 0.01 | 0.00 | 62 | 1009.3 |
| 20260505063016 | 61 | 0.0 | 2.0 | 0.00 | 0.01 | 0.00 | 66 | 1009.3 | |
| 20260505060022 | 62 | 0.0 | 3.0 | 0.00 | 0.01 | 0.00 | 65 | 1009.6 | |
| 20260505053016 | 64 | 225 | 1.0 | 3.0 | 0.00 | 0.01 | 0.00 | 63 | 1009.5 |
| 20260505040016 | 65 | 270 | 2.0 | 6.0 | 0.00 | 0.01 | 0.01 | 61 | 1009.5 |
| 20260505033015 | 64 | 270 | 2.0 | 8.0 | 0.00 | 0.01 | 0.01 | 65 | 1009.4 |
| 20260505030016 | 60 | 0.0 | 5.0 | 0.00 | 0.01 | 0.01 | 72 | 1009.1 | |
| 20260505023015 | 61 | 0.0 | 4.0 | 0.01 | 0.01 | 0.01 | 74 | 1009.0 | |
| 20260505020015 | 61 | 0.0 | 4.0 | 0.01 | 0.01 | 0.01 | 73 | 1009.2 | |
| 20260505013015 | 64 | 203 | 1.0 | 9.0 | 0.00 | 0.00 | 0.00 | 64 | 1008.9 |
| 20260505010015 | 68 | 248 | 2.0 | 6.0 | 0.00 | 0.00 | 0.00 | 49 | 1008.8 |
| 20260505003015 | 69 | 293 | 1.0 | 5.0 | 0.00 | 0.00 | 0.00 | 48 | 1008.2 |
| 20260505000015 | 70 | 203 | 2.0 | 8.0 | 0.00 | 0.00 | 0.00 | 47 | 1008.3 |
| 20260504233015 | 71 | 225 | 2.0 | 11.0 | 0.00 | 0.00 | 0.00 | 42 | 1008.0 |
| 20260504230015 | 73 | 225 | 3.0 | 12.0 | 0.00 | 0.00 | 0.00 | 41 | 1008.0 |